#timestamp,LO_Frequency,Hit,StdDev 
1535968815.1,286047000.6,N
1535968835.9,286047000.8,N
1535968855.7,286046999.7,N
1535968875.6,286046999.9,N
1535968895.4,286047000.0,N
1535968915.2,286046999.5,N
1535968935.1,286046999.0,N
1535968936.0,286046999.0,N
1535968955.8,286046996.9,N
1535968975.7,286046999.5,N
1535968995.5,286046997.3,N
1535969015.3,286046996.2,N
1535969035.2,286046996.0,N
1535969055.0,286046993.6,Y
1535969055.9,286046993.6,P
1535969075.8,286046997.2,N
1535969095.6,286046997.7,N
1535969115.4,286046997.3,N
1535969135.3,286046999.2,N
1535969155.1,286046997.4,N
1535969175.8,286046999.4,N
1535969195.7,286046999.3,N
1535969215.5,286046995.6,N
1535969235.4,286046997.5,N
1535969255.2,286046997.0,N
1535969275.0,286046997.0,N
1535969275.9,286046997.0,N
1535969295.8,286046998.4,N
1535969315.6,286047000.7,N
1535969335.4,286046998.7,N
1535969355.3,286046998.1,N
1535969375.1,286046998.9,N
1535969395.9,286046997.5,N
1535969415.7,286046995.3,Y
1535969435.5,286046998.1,P
1535969455.4,286047000.1,N
1535969475.2,286046998.4,N
1535969495.0,286047001.1,N
1535969495.9,286047001.1,N
1535969515.8,286047002.3,N
1535969535.6,286047000.2,N
1535969555.5,286046999.1,N
1535969575.3,286046998.3,N
1535969595.1,286047000.4,N
1535969615.9,286047000.9,N
1535969635.7,286046998.3,N
1535969655.5,286046996.7,N
1535969675.4,286046996.4,N
1535969695.2,286046997.9,N
1535969715.1,286046998.0,N
1535969716.0,286046998.0,N
1535969735.8,286046994.2,Y
1535969755.6,286046995.1,P
1535969775.5,286046995.1,N
1535969795.3,286046997.4,N
1535969815.1,286046997.4,N
1535969835.9,286046997.1,N
1535969855.7,286046996.9,N
1535969875.6,286046999.5,N
1535969895.4,286046999.3,N
1535969915.2,286046996.5,N
1535969935.1,286046997.1,N
1535969936.0,286046997.1,N
1535969955.8,286046997.4,N
1535969975.6,286046995.2,Y
1535969995.5,286046996.9,P
1535970015.3,286046996.5,P
1535970035.2,286046999.4,N
1535970055.9,286046997.5,N
1535970075.7,286046998.9,N
1535970095.6,286046999.2,N
1535970115.4,286047000.3,N
1535970135.2,286047005.9,Y
1535970155.1,286047003.7,P
1535970156.0,286047003.7,N
1535970175.8,286047004.2,N
1535970195.7,286047003.2,N
1535970215.5,286047003.4,N
1535970235.3,286047002.1,N
1535970255.2,286046999.7,N
1535970275.0,286047004.0,N
1535970275.9,286047004.0,N
1535970295.8,286047001.8,N
1535970315.6,286047000.1,N
1535970335.4,286047000.2,N
1535970355.3,286047001.0,N
1535970375.1,286047002.0,N
1535970395.8,286047002.4,N
1535970415.7,286047000.6,N
1535970435.5,286046996.5,N
1535970455.4,286046999.4,N
1535970475.2,286046996.5,N
1535970495.0,286046998.9,N
1535970495.9,286046998.9,N
1535970515.8,286047000.8,N
1535970535.6,286047001.1,N
1535970555.5,286047000.3,N
1535970575.3,286046998.2,N
1535970595.1,286046999.6,N
1535970615.9,286046999.2,N
1535970635.7,286046999.6,N
1535970655.5,286046997.4,N
1535970675.4,286046996.6,N
1535970695.2,286046996.7,N
1535970715.1,286046999.5,N
1535970716.0,286046999.5,N
1535970735.8,286046997.1,N
1535970755.6,286046995.2,N
1535970775.5,286046993.6,N
1535970795.3,286046996.2,N
1535970815.1,286046993.7,N
1535970835.9,286046992.6,Y
1535970855.7,286046994.7,P
1535970875.6,286046994.1,N
1535970895.4,286046993.4,P
1535970915.2,286046994.2,N
1535970935.1,286046994.6,N
1535970936.0,286046994.6,Y
1535970955.8,286047001.9,P
1535970975.7,286047004.3,N
1535970995.5,286047002.7,N
1535971015.3,286046997.4,N
1535971035.2,286046998.5,N
1535971055.0,286046999.6,N
1535971055.9,286046999.6,N
1535971075.8,286046997.7,N
1535971095.6,286046997.4,N
1535971115.4,286046999.5,N
1535971135.3,286046999.0,N
1535971155.1,286046999.9,N
1535971175.8,286046998.5,N
1535971195.7,286046997.5,N
1535971215.5,286047001.1,N
1535971235.4,286046998.2,N
1535971255.2,286046996.5,N
1535971275.0,286046997.8,N
1535971275.9,286046997.8,N
1535971295.8,286046997.0,N
1535971315.6,286046996.6,N
1535971335.5,286046997.2,N
1535971355.3,286046996.2,N
1535971375.1,286046994.5,N
1535971395.9,286046993.4,N
1535971415.7,286046996.1,N
1535971435.5,286046997.9,N
1535971455.4,286046995.4,N
1535971475.2,286046995.0,N
1535971495.1,286046997.5,N
1535971496.0,286046997.5,N
1535971515.8,286046995.3,N
1535971535.6,286046993.5,Y
1535971555.5,286046997.4,P
1535971575.3,286046998.0,P
1535971595.2,286046997.7,P
1535971615.9,286046997.2,Y
1535971635.7,286046998.6,P
1535971655.6,286046998.9,N
1535971675.4,286046997.0,P
1535971695.3,286046995.0,Y
1535971715.1,286046999.0,P
1535971716.0,286046999.0,N
1535971735.8,286047001.1,N
1535971755.7,286047002.0,N
1535971775.5,286047004.1,N
1535971795.3,286047002.4,N
1535971815.2,286047000.0,N
1535971835.0,286047000.3,N
1535971835.9,286047000.3,N
1535971855.8,286047000.0,N
1535971875.6,286047000.8,N
1535971895.4,286047001.1,N
1535971915.3,286046998.9,N
1535971935.1,286046998.8,N
1535971955.9,286047002.5,N
1535971975.7,286047002.6,N
1535971995.5,286047001.9,N
1535972015.4,286047004.2,N
1535972035.2,286047001.7,N
1535972055.0,286047005.6,Y
1535972055.9,286047005.6,P
1535972075.8,286047003.1,N
1535972095.6,286047003.6,N
1535972115.5,286047003.3,N
1535972135.3,286047003.6,N
1535972155.1,286047003.7,N
1535972175.9,286047004.0,Y
1535972195.7,286046995.5,P
1535972215.6,286046993.8,N
1535972235.4,286046994.7,N
1535972255.2,286046992.5,N
1535972275.1,286046992.7,N
1535972276.0,286046992.7,N
1535972295.8,286046993.0,N
1535972315.7,286046992.6,N
1535972335.5,286046992.1,N
1535972355.3,286046993.6,N
1535972375.2,286046996.1,N
1535972395.0,286046994.6,N
1535972395.9,286046994.6,N
